Date,TemperatureHighF,TemperatureAvgF,TemperatureLowF,DewpointHighF,DewpointAvgF,DewpointLowF,HumidityHigh,HumidityAvg,HumidityLow,PressureMaxIn,PressureMinIn,WindSpeedMaxMPH,WindSpeedAvgMPH,GustSpeedMaxMPH,PrecipitationSumIn
2013-2-1,42,29,21,33,17,11,83,60,44,30.44,30.05,15,1,17,0.00
2013-2-2,36,28,21,30,22,14,85,78,67,30.39,30.09,13,1,15,0.03
2013-2-3,50,36,27,37,29,22,88,76,52,30.18,30.02,15,1,17,0.04
2013-2-4,47,35,24,32,27,21,88,73,55,30.17,29.99,6,0,8,0.00
2013-2-5,60,47,38,44,37,31,86,71,48,30.06,29.95,7,1,8,0.00
2013-2-6,63,45,31,41,34,28,89,69,34,30.22,30.05,13,1,38,0.00
2013-2-7,53,46,39,41,37,33,83,73,55,30.16,29.96,3,0,3,0.00
2013-2-8,55,45,38,46,38,30,89,77,57,30.29,29.92,16,1,18,0.09
2013-2-9,56,42,28,33,28,23,84,61,32,30.37,30.24,4,1,7,0.00
2013-2-10,62,46,37,45,36,28,89,72,36,30.25,30.01,12,1,23,0.42
2013-2-11,57,50,41,52,43,34,89,78,48,30.15,30.00,11,1,15,0.00
2013-2-12,55,44,35,38,34,31,87,70,44,30.19,29.88,12,0,13,0.02
2013-2-13,47,42,33,43,37,30,89,84,76,30.02,29.72,9,1,10,0.17
2013-2-14,56,43,34,39,35,30,88,73,50,30.10,30.01,10,1,12,0.00
2013-2-15,54,40,30,42,33,26,89,75,58,30.13,30.04,10,1,12,0.00
2013-2-16,41,33,28,29,20,12,82,60,42,30.18,30.06,8,2,11,0.00
2013-2-17,45,32,20,19,15,11,75,53,33,30.30,30.17,8,1,10,0.00
2013-2-18,59,42,23,33,25,16,77,54,36,30.33,30.00,18,2,21,0.00
2013-2-19,54,44,37,43,30,18,88,61,31,30.22,29.96,19,2,22,0.26
2013-2-20,41,33,24,21,18,15,76,56,36,30.29,30.20,4,0,5,0.00
2013-2-21,53,38,25,36,24,16,87,60,31,30.25,29.99,8,1,9,0.59
2013-2-22,50,45,39,45,41,35,89,86,81,30.09,30.01,7,0,8,0.10
2013-2-23,62,49,40,49,43,36,89,82,59,30.07,29.86,7,1,8,0.02
2013-2-24,59,42,29,36,29,25,89,63,32,30.11,29.95,6,1,7,0.00
2013-2-25,59,45,31,43,31,24,79,61,39,30.07,29.78,10,1,12,0.00
2013-2-26,54,46,41,45,41,35,89,82,66,29.79,29.52,20,2,24,0.62
2013-2-27,50,42,40,37,34,32,81,72,60,29.91,29.74,11,2,22,0.00
2013-2-28,41,38,36,32,28,26,78,67,60,30.04,29.86,10,1,11,0.00